San Antonio, TX

4:57 AM CDT on May 26, 2018 (GMT -0500)
San Antonio International

Weather History for KSAT - July, 2013

Change the Weather History Date:

Wednesday, July 10, 2013

  Actual Average Record
Temperature  
Mean Temperature 89 °F 84 °F  
Max Temperature 99 °F 94 °F 102 °F (1917)
Min Temperature 78 °F 75 °F 61 °F (1905)
Degree Days  
Heating Degree Days 0 0  
Month to date heating degree days 0 0  
Since 1 June heating degree days 0 0  
Since 1 July heating degree days 0 0  
Cooling Degree Days 24 19  
Month to date cooling degree days 190 190  
Year to date cooling degree days 1382 1342  
Since 1 June cooling degree days 765 713  
Growing Degree Days 38 (Base 50)    
Moisture  
Dew Point 71 °F    
Average Humidity 59    
Maximum Humidity 85    
Minimum Humidity 33    
Precipitation  
Precipitation 0.00 in 0.11 in 1.98 in (1961)
Month to date precipitation 0.01 1.20  
Year to date precipitation 21.87 17.31  
Snow  
Snow 0.00 in - - ()
Month to date snowfall 0.0  
Since 1 June snowfall 0.0  
Since 1 July snowfall 0.0  
Snow Depth 0.00 in    
Sea Level Pressure  
Sea Level Pressure 30.00 in    
Wind  
Wind Speed 8 mph (SSE)    
Max Wind Speed 23 mph    
Max Gust Speed 28 mph    
Visibility 10 miles    
Events      
T = Trace of Precipitation, MM = Missing Value Source: NWS Daily Summary

Daily Weather History Graph

Daily Weather History Graph

Search for Another Location

Airport or City:

Astronomy

Jul. 10, 2013 Rise Set
Actual Time 6:41 AM CDT 8:36 PM CDT
Civil Twilight 6:14 AM CDT 9:03 PM CDT
Nautical Twilight 5:42 AM CDT 9:36 PM CDT
Astronomical Twilight 5:07 AM CDT 10:10 PM CDT
Moon 8:50 AM CDT (7/10) 10:03 PM CDT (7/10)
Length of Visible Light 14h 48m
Length of Day
13h 55m
Waxing Crescent, 5% of the Moon is Illuminated
Jul 10
Waxing Crescent
Jul 15
First Quarter
Jul 22
Full
Jul 29
Last Quarter
Aug 6
New

Hourly Weather History & Observations

Time (CDT) Temp. Heat Index Dew Point Humidity Pressure Visibility Wind Dir Wind Speed Gust Speed Precip Events Conditions
12:51 AM 81.0 °F 85.8 °F 73.0 °F 77% 30.04 in 10.0 mi SSE 9.2 mph - N/A   Partly Cloudy
1:51 AM 80.1 °F 84.2 °F 73.0 °F 79% 30.04 in 10.0 mi SE 6.9 mph - N/A   Partly Cloudy
2:51 AM 79.0 °F - 73.9 °F 84% 30.03 in 10.0 mi SE 6.9 mph - N/A   Clear
3:51 AM 78.1 °F - 73.9 °F 87% 30.03 in 10.0 mi SSE 6.9 mph - N/A   Clear
4:15 AM 78.8 °F - 73.4 °F 83% 30.09 in 10.0 mi SE 4.6 mph - N/A   Mostly Cloudy
4:51 AM 78.1 °F - 73.9 °F 87% 30.03 in 10.0 mi SSE 5.8 mph - N/A   Mostly Cloudy
5:51 AM 78.1 °F - 73.9 °F 87% 30.03 in 10.0 mi South 6.9 mph - N/A   Mostly Cloudy
6:51 AM 78.1 °F - 73.9 °F 87% 30.04 in 10.0 mi South 8.1 mph - N/A   Overcast
7:51 AM 79.0 °F - 73.9 °F 84% 30.06 in 10.0 mi South 3.5 mph - N/A   Mostly Cloudy
8:51 AM 81.0 °F 85.8 °F 73.0 °F 77% 30.06 in 10.0 mi South 8.1 mph - N/A   Mostly Cloudy
9:51 AM 84.0 °F 90.2 °F 73.0 °F 69% 30.07 in 10.0 mi Variable 6.9 mph - N/A   Mostly Cloudy
10:06 AM 82.4 °F 87.2 °F 71.6 °F 70% 30.12 in 10.0 mi SSW 5.8 mph - N/A   Scattered Clouds
10:51 AM 87.1 °F 93.6 °F 72.0 °F 61% 30.06 in 10.0 mi Variable 3.5 mph - N/A   Scattered Clouds
11:51 AM 88.0 °F 92.9 °F 70.0 °F 55% 30.05 in 10.0 mi SE 4.6 mph - N/A   Scattered Clouds
12:51 PM 91.9 °F 96.9 °F 69.1 °F 47% 30.03 in 10.0 mi SSE 8.1 mph - N/A   Scattered Clouds
1:51 PM 93.0 °F 97.4 °F 68.0 °F 44% 30.00 in 10.0 mi Variable 3.5 mph - N/A   Scattered Clouds
2:51 PM 95.0 °F 99.5 °F 68.0 °F 41% 29.98 in 10.0 mi East 9.2 mph - N/A   Scattered Clouds
3:51 PM 97.0 °F 102.2 °F 68.0 °F 39% 29.96 in 10.0 mi Variable 5.8 mph - N/A   Scattered Clouds
4:51 PM 97.0 °F 99.3 °F 64.0 °F 34% 29.94 in 10.0 mi SE 8.1 mph - N/A   Scattered Clouds
5:51 PM 98.1 °F 101.2 °F 64.9 °F 34% 29.90 in 10.0 mi East 5.8 mph - N/A   Scattered Clouds
6:51 PM 96.1 °F 98.3 °F 64.0 °F 35% 29.88 in 10.0 mi ESE 5.8 mph - N/A   Scattered Clouds
7:51 PM 91.9 °F 97.4 °F 70.0 °F 48% 29.90 in 10.0 mi SSE 16.1 mph 25.3 mph N/A   Scattered Clouds
8:51 PM 90.0 °F 95.4 °F 70.0 °F 52% 29.91 in 10.0 mi SSE 15.0 mph 23.0 mph N/A   Scattered Clouds
9:51 PM 88.0 °F 92.1 °F 69.1 °F 53% 29.92 in 10.0 mi SSE 15.0 mph 20.7 mph N/A   Scattered Clouds
10:51 PM 87.1 °F 90.6 °F 68.0 °F 53% 29.94 in 10.0 mi SSE 13.8 mph - N/A   Partly Cloudy
11:51 PM 84.9 °F 88.2 °F 68.0 °F 57% 29.96 in 10.0 mi SSE 10.4 mph - N/A   Partly Cloudy